Theta_e
333 333 332 332 332 332 333 333 333 332 332 331 330 328 324 322 316 314 314 315 315 321 321 320 329 330 330 328 329 328 328 328 329 330 329 329 329 328 328 329 330 331 330 330 330 331 332 332 332 334 336 337 339 342 343 343 345 346 347 349 351 352 352 350 350 350 350 350 349 349 350 351 354 356
333 333 332 332 332 334 332 333 333 333 332 330 329 328 326 325 320 318 314 313 317 320 322 322 324 328 328 327 327 327 328 328 329 329 329 328 327 327 328 330 329 329 329 328 328 329 329 330 331 331 332 334 336 338 340 341 342 344 344 346 348 349 349 348 349 350 350 351 350 349 350 350 351 352
334 333 332 332 332 333 333 333 332 333 332 330 329 327 326 325 325 321 318 314 318 320 321 323 324 324 326 325 326 326 327 328 328 329 328 328 327 328 328 328 327 327 327 327 327 327 327 328 329 329 330 332 334 336 338 339 340 341 343 344 346 346 346 346 347 349 350 350 350 349 349 349 350 351
334 333 333 333 333 333 332 332 331 331 332 331 328 327 326 325 325 324 321 316 314 321 320 321 323 325 325 327 325 326 326 327 329 328 327 327 328 327 326 326 327 326 326 326 326 325 325 327 329 329 330 332 334 336 336 337 338 339 340 341 343 344 344 343 344 346 348 349 349 349 349 349 349 350
333 334 333 333 333 334 332 331 331 330 330 330 328 328 326 324 324 323 321 318 317 319 323 322 322 325 325 323 326 325 326 327 327 327 328 327 326 325 326 326 327 327 326 325 325 325 325 326 327 328 329 331 332 334 336 336 337 338 337 338 339 340 342 341 341 344 346 347 348 348 349 348 347 348
333 333 333 333 334 334 332 331 330 330 329 328 327 327 325 324 324 323 322 320 318 315 320 321 324 323 324 322 326 325 325 325 327 326 326 326 326 325 325 325 326 327 326 324 323 324 324 325 326 327 329 330 331 332 333 333 334 335 335 335 335 336 336 336 338 341 343 345 346 347 347 347 347 347
333 331 332 332 333 333 331 331 330 330 329 328 327 327 326 325 325 324 323 321 318 317 318 321 321 322 324 323 324 326 326 327 327 325 325 325 324 325 325 325 325 326 325 324 324 323 324 324 325 326 327 327 327 328 329 330 331 331 332 332 334 334 333 334 335 338 340 343 344 346 346 346 346 346
332 331 331 331 332 332 331 331 330 329 329 328 327 327 327 326 325 325 324 322 320 319 316 319 320 322 322 323 326 326 327 326 326 325 325 325 324 324 325 325 325 325 324 324 323 323 323 323 323 323 324 324 324 324 324 326 328 328 328 328 330 330 331 330 332 336 336 338 341 343 344 345 344 342
332 331 331 332 332 331 330 330 329 329 327 328 327 326 327 326 326 325 324 324 322 319 316 319 322 323 323 324 324 326 324 325 325 326 324 323 323 324 324 323 325 325 324 324 324 323 323 323 323 323 324 324 324 324 324 325 325 326 327 327 327 328 329 329 328 331 332 333 335 336 338 341 342 342
332 332 332 331 331 330 329 329 329 329 328 328 327 326 326 326 326 325 325 325 323 321 321 321 320 323 322 322 323 325 326 323 321 321 323 324 323 323 322 322 323 325 325 324 324 323 323 323 323 323 323 324 323 324 324 324 323 323 323 322 322 325 326 327 329 329 329 330 332 334 335 337 338 340
332 331 331 331 331 330 330 329 329 329 328 328 327 328 327 327 326 325 324 324 323 322 321 321 321 320 322 322 321 325 327 325 322 319 318 318 322 323 322 321 324 324 324 324 324 324 324 324 324 322 322 323 323 324 324 323 322 322 321 320 320 320 321 322 325 327 327 327 328 329 329 332 336 338
332 332 332 331 332 332 331 331 330 330 329 329 327 328 327 327 326 324 325 324 323 322 321 320 319 320 320 322 324 325 325 322 321 322 320 316 318 320 322 323 321 323 323 321 322 323 323 323 323 322 323 324 324 324 325 325 326 325 322 321 323 322 321 321 323 324 324 324 323 325 326 327 331 335
331 332 332 332 333 333 332 329 328 328 326 329 328 328 328 327 326 325 324 323 322 321 320 319 320 320 319 320 321 320 320 319 319 322 322 319 320 320 320 322 324 323 321 321 321 321 323 323 324 325 326 328 329 328 330 331 331 328 324 323 324 324 323 321 321 322 323 323 322 322 323 325 328 331
331 331 332 333 334 330 328 327 326 324 322 322 327 330 329 327 326 325 324 323 322 321 319 319 319 318 318 319 320 319 321 323 323 321 320 317 319 319 318 319 321 324 322 320 319 321 323 323 323 324 323 326 329 329 333 336 336 333 328 326 324 324 324 322 321 321 321 321 321 321 320 323 326 327
332 333 333 332 332 333 332 332 328 326 324 323 322 321 321 322 326 325 323 323 322 320 320 320 320 319 318 319 321 320 321 322 321 320 320 319 318 315 313 311 318 324 322 320 318 318 321 323 320 321 321 323 325 326 326 330 333 330 328 327 326 325 324 324 323 322 320 320 320 320 320 321 323 324
332 332 332 332 332 332 331 331 331 329 327 323 322 321 320 319 319 320 323 324 323 322 321 320 320 320 319 319 320 320 320 320 320 321 320 319 317 315 313 314 313 319 323 318 316 316 320 321 320 319 321 323 325 325 325 325 329 330 328 328 327 326 325 324 325 325 323 322 322 323 323 323 324 324
331 331 330 330 330 330 329 330 331 330 328 324 322 320 319 318 317 318 318 319 324 326 322 321 319 320 320 319 320 322 322 323 319 319 317 318 317 316 315 315 315 317 321 318 315 314 318 320 319 318 321 323 325 326 326 326 327 329 329 328 328 327 326 325 325 325 324 323 322 322 323 322 322 322
329 329 329 328 328 329 329 329 327 326 326 326 326 326 326 325 324 320 318 317 316 319 322 321 319 322 322 320 321 323 323 320 318 317 316 318 317 316 315 316 317 319 321 317 315 313 315 319 318 317 320 323 324 327 326 325 326 329 328 328 326 326 325 324 324 324 324 323 322 321 320 319 319 320
328 328 327 327 327 327 327 328 327 326 326 326 325 324 323 324 325 325 325 324 324 323 323 323 322 323 323 323 323 322 322 321 320 319 318 318 317 317 318 317 318 318 321 319 316 310 315 319 318 318 320 322 324 325 324 324 325 327 327 327 327 325 324 324 324 323 322 322 321 320 318 318 317 317
326 326 326 326 326 326 325 322 319 322 325 324 323 323 323 324 324 324 321 319 319 322 323 323 322 322 321 316 320 319 318 317 317 316 317 317 316 315 313 312 315 315 319 320 317 313 314 319 317 318 321 323 323 325 327 324 323 324 326 327 326 325 323 322 323 322 322 322 321 320 317 315 314 314
324 324 325 325 326 325 326 322 318 317 319 323 322 322 322 322 322 321 322 317 314 313 311 310 311 311 311 311 311 310 311 315 315 315 313 312 314 313 310 311 312 313 316 318 318 315 313 317 318 318 321 322 322 324 326 328 326 325 324 325 325 323 322 321 321 321 322 321 321 320 319 315 314 314
323 324 326 327 328 327 327 319 314 313 318 321 322 321 320 320 318 319 319 317 316 312 311 311 312 312 312 312 311 311 311 311 312 315 311 315 315 312 312 310 311 313 315 317 319 315 314 318 320 318 320 322 323 323 325 327 328 328 324 323 324 322 322 321 319 320 320 321 320 319 318 315 314 322
323 324 323 322 322 321 320 311 311 311 314 319 320 320 318 316 315 316 315 314 314 315 315 316 316 317 315 318 318 318 314 313 315 319 317 318 315 312 312 311 311 309 311 317 320 315 315 317 319 320 318 316 322 326 326 327 329 333 340 338 332 323 322 321 318 317 318 319 319 319 316 314 315 327
323 321 320 321 317 312 310 308 307 307 306 316 318 317 315 314 314 315 314 314 314 314 314 313 315 315 316 316 317 317 317 318 320 318 319 318 316 313 311 312 311 308 311 317 320 317 317 319 318 322 319 315 316 324 328 328 331 335 340 341 339 328 324 322 318 315 315 316 316 317 315 313 316 329
317 318 318 318 316 310 307 306 305 304 304 307 313 314 315 316 314 311 313 313 312 313 313 313 313 314 315 315 315 315 315 316 317 318 317 317 316 314 312 311 311 311 314 319 321 321 317 319 318 321 321 320 319 323 331 331 336 337 342 343 341 341 335 332 329 330 316 312 313 313 313 313 313 326
316 317 317 317 316 310 306 303 301 302 302 304 310 314 307 305 307 312 313 313 312 311 311 311 312 312 312 312 312 313 313 314 315 314 314 315 316 316 317 315 312 311 313 319 320 323 320 319 319 319 320 319 319 320 324 330 338 341 343 343 343 342 337 335 334 335 332 327 324 317 319 312 314 317
315 315 315 316 314 306 300 298 299 300 302 303 308 302 302 304 305 309 312 311 310 309 309 309 309 310 310 310 310 310 310 312 312 313 314 315 316 318 319 320 319 317 318 321 326 326 323 320 323 320 319 321 319 321 321 324 332 341 340 341 342 343 340 338 335 335 334 330 329 314 312 311 313 315
313 314 315 314 303 298 295 297 300 302 303 310 301 300 303 306 308 311 310 309 308 308 308 307 308 308 309 309 308 309 310 311 312 313 315 315 316 316 317 317 320 320 321 323 325 327 326 323 324 326 325 324 322 321 324 329 335 338 337 340 341 341 338 338 337 336 335 333 330 322 322 319 318 318
316 310 303 300 301 300 300 301 303 305 305 305 304 303 305 310 311 309 308 307 307 306 305 306 306 307 308 308 309 310 310 312 313 314 314 315 316 316 317 317 319 319 321 322 324 326 326 326 325 326 327 326 326 328 329 331 332 335 335 337 336 338 337 338 338 336 334 332 329 324 324 324 320 321
308 306 305 304 304 305 308 314 316 314 311 307 307 308 308 310 309 309 308 306 305 304 305 305 305 306 307 308 309 310 311 310 310 312 312 312 313 313 313 313 314 317 319 321 323 326 327 327 327 328 327 327 329 327 330 328 332 337 338 338 338 338 337 337 338 338 334 331 330 327 327 327 324 322
311 314 314 312 308 308 310 310 309 310 309 310 309 309 309 309 308 308 308 306 305 305 304 304 305 305 307 308 308 308 308 309 310 312 313 311 310 312 312 312 312 313 316 319 323 325 328 329 329 328 325 325 328 330 334 335 332 335 337 338 337 334 335 337 337 337 336 333 332 329 328 327 326 325
310 314 311 311 314 312 309 308 307 308 309 309 307 307 307 306 306 306 304 304 305 304 304 304 305 305 306 305 306 307 307 308 309 311 311 310 310 311 311 310 310 312 314 316 319 324 327 327 329 330 329 327 324 329 332 332 331 333 335 337 336 338 337 336 336 337 337 334 330 328 327 327 326 326
312 311 311 311 308 308 307 305 304 304 305 305 304 304 304 305 304 305 304 303 302 303 304 303 303 304 304 304 305 306 306 307 308 310 309 310 309 309 310 309 310 311 311 313 316 319 323 325 329 332 331 327 327 328 329 328 332 336 335 337 335 335 336 337 338 337 335 332 329 328 327 328 329 328
308 308 307 307 307 305 305 304 304 303 303 303 301 301 302 304 304 304 303 302 302 303 303 303 303 303 303 302 303 304 304 306 307 308 307 308 309 307 307 308 309 311 313 313 315 316 319 322 325 321 320 319 317 316 320 327 331 332 334 335 334 333 334 336 337 336 334 333 331 328 327 327 328 329
306 306 306 304 305 305 304 304 303 303 302 303 301 301 301 303 302 302 301 301 301 302 302 302 303 303 302 302 302 302 304 304 305 306 307 308 307 306 307 308 309 310 311 312 313 316 317 318 320 322 321 321 320 318 317 315 322 332 332 334 334 333 333 333 333 334 333 335 334 330 328 328 328 330
305 305 304 303 303 303 303 303 304 302 301 302 301 299 299 299 300 300 299 300 300 301 301 301 301 301 301 302 302 302 303 303 304 304 305 305 305 305 306 307 309 310 311 312 314 315 317 317 317 316 318 320 320 320 317 314 312 312 325 331 332 332 334 334 335 335 333 333 334 333 329 328 329 331
304 303 304 303 304 304 302 302 302 301 300 301 301 299 298 297 297 298 299 299 300 301 300 300 300 301 301 301 301 301 302 302 302 303 303 304 305 305 304 306 308 309 309 311 315 315 316 315 316 315 314 317 317 318 315 316 310 310 310 317 328 333 334 334 334 333 334 334 334 334 334 333 333 333
304 304 304 303 302 303 303 301 301 301 300 300 300 299 296 297 297 298 299 299 299 299 299 299 299 300 300 300 299 300 301 302 302 302 302 303 303 303 303 304 305 307 308 311 314 315 316 316 315 314 313 310 309 312 310 313 313 312 307 308 315 320 326 333 331 332 332 335 334 336 337 335 335 337
305 304 304 303 302 301 301 301 300 299 299 298 298 298 296 296 296 297 298 298 298 298 298 298 298 299 299 299 299 299 300 301 301 300 301 302 303 303 303 304 305 307 308 309 312 313 315 315 316 315 314 312 309 309 311 311 310 315 311 305 309 315 320 327 331 332 332 332 333 336 337 338 338 330
305 304 303 302 302 301 301 300 299 298 297 297 295 297 295 296 295 296 297 297 297 297 297 297 297 297 298 298 298 299 300 300 300 300 300 301 302 304 303 304 305 305 306 308 309 311 313 314 315 316 316 315 318 318 318 317 317 319 318 314 304 308 312 318 325 331 332 333 334 332 331 332 332 333
304 303 302 302 302 301 299 298 297 297 296 295 295 296 295 294 295 296 296 296 296 296 296 296 296 297 297 297 298 298 298 299 300 300 300 300 301 302 303 304 303 305 305 306 307 309 311 314 320 317 321 320 320 323 318 313 311 313 315 317 309 307 307 310 316 320 324 324 331 332 331 330 331 330
303 301 300 300 299 298 297 296 295 295 295 294 294 294 294 295 295 293 295 295 294 296 295 296 296 296 297 297 298 299 298 299 299 299 299 299 299 300 302 303 302 303 304 304 306 308 313 317 320 320 320 319 317 313 311 311 310 312 314 317 319 312 310 309 309 311 315 318 324 328 328 329 332 329
302 301 300 299 298 297 296 296 294 294 293 293 294 293 294 294 294 293 293 293 294 294 294 295 295 296 296 297 298 299 299 299 299 298 299 299 299 298 299 300 302 303 304 305 308 310 312 315 317 317 317 316 316 316 312 313 314 314 314 315 316 318 320 315 311 311 311 311 310 312 316 322 327 326
302 301 300 299 297 295 294 294 293 293 293 293 293 293 294 294 294 293 292 292 292 293 293 294 294 295 296 297 299 299 300 299 299 299 299 299 299 299 299 300 302 303 305 306 307 308 310 313 314 315 313 312 314 314 312 313 312 313 314 315 316 317 316 319 321 316 315 313 311 311 311 309 309 310
302 300 298 296 295 294 293 293 293 291 291 292 292 293 293 293 293 293 292 292 292 292 293 293 294 295 296 297 298 298 299 299 298 299 299 300 299 299 299 299 300 301 303 305 306 307 308 310 312 313 312 312 312 313 315 314 312 312 312 313 313 315 316 317 316 315 315 315 312 310 311 311 311 310
Wind_Speed
5 4 5 6 5 5 4 3 3 4 3 4 4 5 6 5 2 3 3 4 4 3 3 2 2 3 3 4 4 4 5 8 10 7 7 6 6 7 11 13 13 14 15 14 15 16 17 17 18 19 20 21 21 21 20 20 20 21 21 21 20 19 20 20 20 21 21 21 21 22 22 21 22 21
4 4 3 4 5 4 4 5 4 4 5 5 5 4 4 6 6 4 4 7 4 4 2 4 4 2 4 3 5 4 6 9 10 8 7 7 7 11 13 13 13 13 14 15 15 15 17 18 18 18 19 20 21 22 21 20 20 21 21 21 21 21 20 19 19 21 22 22 22 22 22 22 21 21
3 4 5 4 5 4 5 4 4 4 4 5 5 4 4 5 6 6 3 4 3 4 4 5 5 5 7 5 6 6 6 8 9 8 7 7 10 15 11 13 13 13 14 15 16 15 16 17 19 18 18 20 21 22 22 21 21 21 21 21 21 21 21 20 20 20 21 22 21 22 22 22 21 21
4 4 5 5 5 4 4 4 5 5 5 5 5 5 5 5 6 5 5 6 12 4 5 5 7 7 8 7 7 8 6 6 11 8 7 9 13 9 7 10 13 14 14 14 15 16 16 17 18 20 20 20 21 21 22 22 21 21 21 21 21 21 21 21 20 20 20 21 21 21 22 22 21 21
4 4 5 6 6 4 5 5 5 5 5 4 4 4 4 5 5 6 6 7 9 9 5 5 7 5 4 7 6 7 8 7 6 8 8 8 8 8 7 8 11 14 14 14 15 16 17 18 18 20 21 21 21 22 23 23 22 22 21 21 21 21 21 20 20 20 20 20 21 21 21 21 21 21
4 4 5 6 6 5 6 5 5 5 5 5 5 5 5 6 6 6 6 6 7 13 7 4 4 6 5 8 7 7 9 9 7 9 8 7 7 8 8 8 8 12 15 15 15 16 17 19 19 19 21 22 22 22 23 23 23 22 22 21 21 21 21 20 20 20 20 20 21 21 21 21 21 21
5 5 6 7 6 3 5 6 6 5 6 5 6 7 5 6 7 5 7 6 8 13 12 8 5 5 4 6 8 9 7 8 8 10 10 8 7 7 8 9 8 10 15 16 17 17 18 19 20 20 20 22 22 22 23 23 23 22 22 21 21 21 21 21 21 21 21 21 21 21 21 21 21 21
6 6 6 6 6 5 6 6 5 4 5 5 5 6 5 6 7 6 5 7 6 5 10 12 11 8 8 8 7 7 8 8 9 8 9 9 9 9 8 8 9 10 15 17 18 18 18 19 20 21 21 21 22 21 22 23 23 22 22 22 21 21 21 21 21 21 21 21 22 22 22 22 21 21
6 7 7 8 5 4 6 6 5 5 6 6 5 6 5 6 5 5 5 5 5 5 10 10 9 8 6 7 9 9 10 8 8 9 9 10 10 10 9 9 8 13 17 17 18 18 18 19 20 21 22 21 22 22 22 22 23 23 23 22 22 21 21 21 21 21 21 21 22 22 22 22 22 21
7 7 7 7 5 5 6 7 6 5 7 5 6 6 6 6 5 6 6 5 5 8 8 9 11 8 8 7 8 8 7 11 15 15 14 9 9 9 9 8 8 8 8 8 9 13 15 17 19 21 22 22 22 23 22 22 23 23 23 23 22 21 21 21 21 21 21 21 21 21 21 21 21 21
6 6 6 6 6 6 7 7 7 6 6 5 7 6 6 5 5 6 6 5 5 6 8 8 9 9 8 7 11 9 5 9 10 14 15 13 7 8 9 10 7 8 11 13 17 17 17 19 18 19 22 23 23 24 24 23 23 23 24 23 22 22 22 21 21 21 21 21 21 21 21 21 21 21
6 6 6 7 7 7 7 7 7 6 7 5 6 6 5 5 5 6 5 5 5 6 8 10 12 10 12 12 12 10 8 9 11 7 8 13 12 10 8 9 10 8 9 12 11 11 14 15 17 19 20 22 23 23 24 25 25 25 24 23 23 22 22 22 22 22 22 21 21 21 21 21 21 21
6 6 6 7 7 8 9 11 10 9 8 5 6 6 5 5 5 5 4 5 5 7 7 9 10 11 13 13 12 13 13 13 12 9 9 14 13 10 11 9 8 9 11 10 11 10 9 11 11 11 12 13 17 18 21 19 24 25 23 23 23 23 22 22 22 22 21 21 20 20 21 21 21 21
6 6 6 6 11 11 11 11 12 12 12 12 9 7 5 6 5 5 5 5 5 6 9 9 11 12 13 13 14 14 14 12 8 11 13 15 15 13 13 10 7 7 9 11 13 11 7 9 13 12 15 14 14 13 12 12 13 17 22 24 23 23 23 22 22 22 21 21 21 21 21 21 21 21
7 6 6 6 8 8 8 8 10 11 12 12 13 13 13 10 8 6 5 6 5 7 8 9 9 11 14 15 15 15 15 14 14 13 13 14 14 14 16 17 8 5 8 10 12 14 10 9 14 14 15 16 14 14 14 18 18 20 20 22 23 23 23 22 22 22 22 22 21 22 22 22 22 21
6 6 6 5 4 5 5 5 6 7 10 11 11 12 12 11 12 11 10 8 6 7 9 9 10 11 12 14 14 16 14 14 13 12 13 13 14 15 16 14 13 8 8 12 14 17 11 10 14 16 16 15 14 15 17 19 21 20 21 21 22 22 22 22 22 22 22 22 22 22 22 21 21 21
6 6 5 5 5 4 6 6 5 5 5 8 10 9 9 9 11 11 12 13 10 7 9 11 11 11 13 13 15 15 16 14 16 15 15 13 13 14 15 15 13 15 11 13 14 18 12 7 13 17 15 13 14 14 17 21 22 22 22 22 22 21 22 22 23 23 23 22 22 22 22 22 21 21
7 6 5 5 6 5 5 5 5 4 4 6 7 6 6 7 8 8 9 10 12 12 10 10 11 14 12 13 15 17 16 16 17 16 16 16 15 14 15 20 18 17 9 14 15 18 14 10 12 16 16 13 14 14 18 20 20 21 22 22 22 22 22 22 22 23 23 23 22 22 22 22 22 22
6 4 4 5 5 5 6 5 5 4 5 6 7 8 9 9 9 8 7 6 7 6 6 10 12 13 14 15 16 16 15 16 15 14 17 17 18 18 19 20 20 18 12 17 14 18 12 8 11 16 15 13 14 13 16 20 21 20 20 22 22 22 22 21 22 22 22 22 22 22 22 22 22 21
3 3 4 4 5 6 5 7 9 6 5 6 8 9 10 9 8 7 5 5 7 8 8 8 11 12 14 15 14 15 14 14 14 14 14 14 14 15 15 17 15 15 12 12 14 15 12 10 15 16 13 12 14 13 13 16 20 21 21 21 22 22 21 21 22 22 22 22 22 22 22 21 21 21
3 3 4 4 4 5 6 7 8 6 3 6 8 8 9 8 8 7 6 6 8 8 10 12 14 16 18 19 20 20 21 17 15 10 10 12 11 12 16 15 14 17 14 11 13 16 17 15 12 15 13 12 13 13 13 12 16 19 21 21 22 21 21 21 21 22 22 22 22 21 21 21 20 21
2 4 6 5 5 7 8 6 6 5 4 6 8 8 9 9 8 7 4 3 4 7 12 14 15 16 16 18 19 19 18 18 13 9 11 12 11 13 14 16 18 21 17 14 13 14 15 14 11 13 12 11 12 13 12 12 13 16 17 21 21 21 21 21 21 21 21 21 21 21 21 20 19 13
2 2 2 3 3 4 5 7 6 5 5 5 6 6 5 6 7 5 4 5 7 7 8 9 10 12 11 10 10 12 14 15 15 12 14 11 10 14 15 16 18 20 18 6 9 12 13 11 12 10 8 10 10 11 11 12 12 12 10 10 13 20 21 21 20 20 21 21 21 21 21 20 17 11
4 2 3 3 2 4 5 6 6 5 4 3 3 2 4 5 6 4 4 5 6 8 9 11 11 12 12 12 11 11 12 11 12 11 11 12 11 12 15 16 16 17 16 18 15 13 13 12 12 11 13 11 8 7 11 11 12 11 11 11 11 15 18 18 16 20 20 20 20 20 20 19 18 12
3 4 3 3 4 5 6 6 6 4 2 3 3 3 3 2 3 3 4 6 7 8 9 10 10 11 10 10 9 10 9 10 10 11 12 12 11 12 13 16 18 19 19 19 22 13 11 10 12 9 10 11 12 7 5 9 10 11 11 11 12 10 10 11 10 11 14 17 18 19 18 19 22 17
2 3 4 4 5 7 7 8 7 5 2 2 3 3 2 5 5 5 4 5 6 7 8 9 10 9 9 10 10 11 11 10 11 12 13 13 13 13 12 15 18 19 19 23 26 14 12 9 10 10 9 9 12 11 9 7 7 9 10 10 11 10 11 11 10 11 10 10 10 13 16 20 22 21
3 3 4 5 6 8 8 8 6 3 2 1 2 5 6 5 6 5 4 6 6 7 7 8 9 9 9 10 11 11 12 11 10 11 12 13 14 14 15 16 16 17 18 19 18 15 10 9 6 9 9 8 10 9 10 9 6 7 9 9 11 10 10 10 10 11 10 10 10 14 14 15 18 19
3 3 3 4 8 6 4 5 6 5 2 2 3 4 5 4 3 3 4 5 6 7 7 7 8 9 9 10 11 11 11 12 12 13 13 14 14 15 15 16 17 18 19 16 14 12 9 8 8 9 10 9 8 9 9 9 5 5 8 8 9 9 8 10 10 10 10 9 8 9 9 9 11 12
3 3 6 5 4 7 6 7 5 4 1 2 3 3 4 2 2 2 3 5 5 6 7 7 8 9 8 10 11 11 12 13 12 11 12 12 13 13 14 16 16 15 13 12 12 11 7 9 10 8 8 9 10 9 8 6 6 5 7 7 5 7 7 9 9 9 8 8 9 10 12 12 12 12
4 6 2 7 5 4 3 3 3 3 3 1 2 3 4 2 3 3 3 4 4 5 6 8 8 9 9 9 10 12 11 11 10 10 12 13 13 14 14 16 17 15 13 13 12 10 7 7 9 7 6 7 11 11 9 9 5 4 5 7 5 4 6 8 9 8 9 9 9 10 10 10 11 13
1 2 3 5 7 7 8 7 5 4 3 2 3 3 3 3 3 3 3 4 5 5 6 8 8 9 10 10 11 10 10 11 10 8 10 11 12 13 13 14 15 16 17 15 11 11 9 7 7 6 5 6 7 11 7 5 5 5 5 6 5 5 5 7 8 9 9 9 8 8 7 8 8 11
1 3 4 4 3 3 4 3 2 2 2 2 2 3 3 3 4 4 5 5 4 4 5 8 8 9 9 10 10 10 10 10 9 9 11 11 12 13 12 12 15 15 16 17 15 13 12 8 6 5 4 4 6 5 5 8 9 7 6 5 6 6 4 9 8 8 9 9 8 9 8 9 10 10
3 3 3 2 2 2 2 1 1 1 1 1 2 3 3 3 3 3 3 4 4 5 6 7 8 9 9 10 9 9 10 10 9 9 10 11 10 12 10 11 13 14 15 16 15 15 11 10 6 4 1 2 3 6 6 5 5 5 6 5 6 7 6 8 8 8 8 8 9 9 10 9 9 10
3 2 2 1 1 1 1 1 0 1 1 2 2 2 3 3 3 3 4 4 5 5 6 6 7 8 9 9 9 10 10 11 9 9 8 11 10 10 11 12 13 13 14 14 14 14 13 12 7 4 6 4 5 6 4 3 4 5 4 4 3 7 7 5 5 6 8 8 9 9 8 8 7 8
1 1 2 1 1 1 1 1 1 0 1 2 2 2 2 2 3 4 4 5 6 6 6 6 6 6 7 8 8 10 10 11 10 10 9 8 10 10 9 10 12 14 14 15 14 14 13 12 10 5 1 2 2 5 12 9 3 2 5 3 4 3 4 4 5 6 4 3 7 7 6 5 6 6
2 1 2 2 2 2 2 1 0 0 1 2 2 3 3 3 3 4 5 6 5 5 6 6 7 7 7 7 8 8 9 10 9 9 10 10 11 11 11 11 11 12 12 12 13 12 12 11 10 8 5 3 1 1 1 12 11 5 1 4 4 5 5 8 7 6 7 6 5 5 6 6 6 7
3 3 3 3 2 2 1 1 0 1 1 2 2 2 3 4 4 4 5 6 5 5 5 6 6 6 6 7 8 8 8 9 9 9 9 10 9 9 10 10 11 11 12 12 11 11 11 11 11 9 8 6 3 4 2 3 7 9 3 2 1 5 5 6 6 6 7 7 7 7 6 6 6 6
4 4 3 3 2 1 1 1 1 1 2 2 2 2 2 3 3 4 4 4 4 5 5 5 6 6 6 7 8 8 8 8 8 7 8 9 10 10 10 10 11 10 11 12 11 11 10 10 11 11 9 8 7 6 5 5 4 8 10 1 1 3 2 5 6 8 8 8 7 7 6 7 6 6
4 4 3 2 2 1 1 1 1 1 1 2 2 2 3 3 3 3 3 4 4 5 5 5 6 6 7 7 7 7 8 9 10 9 8 8 8 9 10 10 11 11 10 11 12 11 11 11 11 12 10 9 8 5 3 2 5 3 8 15 4 3 4 1 4 3 3 4 4 5 4 3 4 7
3 2 2 2 1 1 1 1 0 1 1 2 2 2 2 2 2 3 3 4 4 5 5 5 7 7 6 6 7 7 7 8 9 9 9 8 8 8 8 9 8 9 9 11 11 11 11 12 13 12 12 10 5 2 2 2 2 3 8 15 17 9 4 3 1 2 4 4 4 4 4 4 4 2
3 3 2 2 2 1 1 0 0 1 1 1 2 2 1 2 2 2 3 4 4 5 5 5 6 6 6 6 6 7 8 8 8 9 9 9 9 8 10 10 8 8 9 10 10 11 11 10 13 18 11 6 7 5 1 6 12 10 9 8 11 15 15 10 3 2 1 2 4 5 5 5 3 4
4 3 2 2 2 1 1 0 0 1 1 1 1 1 1 1 2 3 3 3 4 4 4 5 6 6 7 7 7 7 7 8 9 9 9 9 10 9 9 8 9 10 9 10 11 11 10 10 10 9 8 9 9 11 12 9 10 9 7 6 6 7 13 17 16 12 6 2 1 2 3 3 3 3
4 3 3 3 2 1 1 0 0 1 1 1 1 1 1 1 1 2 3 3 4 4 4 5 5 6 6 7 6 6 6 7 8 9 9 9 9 9 9 8 8 8 7 8 8 8 9 10 10 10 9 9 10 8 11 10 9 9 9 8 9 7 7 9 13 16 18 17 12 5 2 1 2 4
4 4 3 3 2 2 1 1 1 1 1 1 1 1 1 1 2 2 2 3 3 4 4 5 5 6 7 7 7 7 6 7 7 8 9 9 8 8 8 8 8 8 8 7 9 8 8 9 8 8 9 9 8 9 10 10 10 10 9 9 8 8 9 7 5 8 16 21 19 13 10 7 5 2
3 3 4 3 2 2 1 1 1 1 1 1 1 1 0 1 1 2 2 2 3 3 4 4 5 6 6 7 7 8 8 8 7 7 7 8 8 8 8 8 8 8 8 9 7 8 9 8 8 8 7 8 8 8 8 9 10 9 10 12 12 10 8 7 8 10 11 12 14 17 15 13 11 9
Wind_Direction
223 223 208 211 220 222 211 208 203 197 188 193 176 177 186 166 216 278 279 249 235 245 205 260 279 220 234 279 293 295 285 295 302 299 296 291 288 282 291 300 302 303 305 302 299 298 296 295 292 289 286 282 278 272 267 263 263 262 260 258 254 250 246 243 240 240 237 230 226 225 226 227 230 232
211 221 220 217 226 226 205 214 208 193 198 188 193 188 182 162 191 201 263 284 196 227 235 213 267 256 261 278 287 284 281 284 293 285 283 285 285 291 291 293 297 297 297 298 295 293 293 293 291 288 285 281 278 274 268 263 260 258 257 255 253 251 248 243 236 234 233 230 227 225 224 225 227 229
212 216 231 218 235 221 225 225 215 213 194 203 191 195 171 187 187 188 198 278 257 178 221 239 236 272 284 283 282 278 277 284 289 284 279 278 280 290 293 291 288 289 289 291 294 292 288 289 290 287 283 281 277 274 270 265 260 256 254 253 251 248 245 243 239 234 233 231 228 225 224 224 225 227
224 229 239 239 238 229 222 231 225 216 213 202 198 193 192 198 194 178 196 219 268 227 218 244 264 256 274 278 279 279 272 274 284 283 278 280 289 288 280 277 278 281 283 284 287 289 288 285 286 286 285 280 277 273 271 266 260 256 253 251 249 246 243 241 238 235 232 231 229 225 223 223 224 225
224 227 237 248 246 232 229 227 229 226 220 209 214 202 198 210 195 186 194 233 260 274 207 224 249 255 256 281 249 267 278 281 276 277 275 279 280 282 274 274 271 277 279 281 281 284 286 286 282 283 283 280 276 273 270 266 261 256 252 249 246 245 244 240 237 235 232 231 229 225 223 222 222 223
230 227 238 248 250 227 233 235 229 226 222 212 214 214 204 217 221 195 204 225 247 274 278 246 229 266 230 263 260 272 286 288 289 285 282 275 268 271 277 277 273 271 281 281 280 280 282 284 282 279 280 280 276 271 267 263 260 256 251 247 243 242 241 240 237 235 232 230 228 226 223 222 221 222
244 239 238 246 246 229 235 234 236 228 230 219 222 227 215 226 233 211 208 224 254 270 280 292 279 262 256 248 281 282 271 276 283 288 285 286 280 266 269 276 280 273 278 280 280 280 280 281 282 280 277 278 277 272 266 261 257 254 250 245 242 239 238 237 235 234 232 231 229 226 224 223 222 221
229 235 243 247 236 230 240 246 239 231 228 225 228 235 232 227 240 237 212 221 246 291 292 287 285 282 286 279 269 270 276 283 290 282 284 279 276 274 275 271 275 280 277 277 278 280 280 279 279 279 275 274 274 272 266 260 255 251 247 243 240 237 235 234 233 231 231 230 229 227 225 223 222 221
234 233 234 247 229 212 235 249 246 233 229 228 228 236 237 235 239 243 237 233 208 235 269 279 278 284 268 271 283 283 290 289 279 281 276 283 284 281 273 276 265 273 277 275 277 276 277 278 277 276 275 272 271 269 266 260 254 248 245 241 237 234 232 231 229 229 228 227 227 227 226 224 222 220
230 235 239 242 236 218 223 242 242 234 237 233 234 237 241 242 244 246 251 245 238 258 267 278 288 281 283 285 275 277 282 293 297 297 293 280 274 279 281 267 272 272 277 284 280 280 277 275 274 274 274 272 269 267 265 260 254 247 243 240 235 232 229 228 227 225 225 224 225 225 225 224 222 219
231 234 239 245 232 229 225 234 236 234 237 233 240 237 238 245 243 249 253 254 253 264 272 276 271 279 275 264 282 284 272 275 277 286 292 293 269 272 279 284 272 274 279 271 269 272 277 278 278 275 274 272 269 266 264 260 253 246 240 237 234 230 227 224 223 223 222 221 221 221 222 223 222 220
233 232 236 240 237 231 230 226 234 227 238 231 242 242 235 237 239 248 253 259 256 269 274 272 281 283 289 289 282 281 275 280 281 252 265 286 290 286 280 276 288 279 273 285 279 267 270 271 268 265 262 263 263 263 262 258 251 244 238 234 232 229 225 222 221 221 220 218 218 218 218 219 220 219
231 235 236 239 239 233 237 234 233 235 229 226 238 246 229 232 234 246 248 251 263 272 270 276 279 285 288 287 290 290 286 281 278 286 288 287 283 279 283 276 269 279 283 274 275 272 269 278 275 274 270 265 265 265 258 255 249 242 235 231 230 228 225 222 220 219 219 217 216 215 215 216 216 217
238 240 240 246 247 247 246 244 243 243 244 242 242 248 230 233 232 240 248 251 244 262 270 272 281 287 286 287 289 289 283 281 276 284 284 286 291 292 285 270 257 270 273 282 283 275 267 268 276 274 278 274 268 270 267 255 244 238 230 228 226 225 223 220 218 217 216 215 213 213 213 214 214 214
255 250 242 248 257 257 254 249 248 250 252 255 253 250 251 250 242 245 258 253 243 261 266 273 274 277 283 286 290 289 289 288 288 286 286 288 291 293 298 299 285 219 260 279 282 280 276 271 275 274 272 273 266 263 263 268 252 237 232 225 223 222 221 219 215 214 213 213 212 211 211 212 212 212
247 256 258 253 247 247 242 243 249 250 254 257 259 256 251 248 247 232 229 249 256 252 262 267 264 274 279 286 288 289 290 291 291 286 288 285 286 288 289 289 288 291 287 287 286 280 273 265 270 272 269 265 260 256 255 256 256 241 231 227 223 219 217 215 214 213 212 212 212 212 211 211 211 211
240 247 252 263 261 251 242 247 244 246 268 276 268 255 248 242 246 251 244 238 243 255 262 268 277 274 281 284 283 283 286 291 290 290 289 286 283 282 284 284 286 292 299 292 281 280 277 255 267 271 267 259 257 254 248 246 250 244 231 226 222 219 215 213 212 211 210 210 210 211 210 210 210 210
241 244 248 259 267 269 262 253 251 252 271 272 280 269 266 270 268 254 236 239 244 243 249 260 265 276 275 274 280 285 289 289 288 290 288 288 286 286 289 291 287 283 282 275 281 280 275 243 254 264 263 257 251 250 250 249 247 240 231 225 221 218 215 212 211 211 210 209 208 209 209 209 209 209
250 258 244 243 255 262 266 263 280 294 282 281 282 281 280 277 276 276 279 262 255 252 242 251 262 272 278 278 281 285 287 287 287 287 290 293 292 291 288 283 274 269 251 265 266 272 274 249 246 256 255 249 251 250 246 240 244 242 231 224 220 216 214 212 211 210 209 208 207 207 207 208 208 208
244 237 231 232 242 253 265 276 280 281 281 271 281 285 284 285 281 277 271 292 284 268 267 271 273 277 282 286 286 287 289 291 289 289 287 284 282 285 286 287 281 272 260 247 262 268 268 252 259 261 253 246 249 246 244 240 234 236 231 224 219 215 211 211 210 209 208 207 206 206 206 206 206 206
229 218 220 225 247 270 276 283 297 328 283 258 258 264 274 282 289 287 294 257 249 263 268 266 269 271 274 276 277 275 274 273 278 285 286 281 285 290 293 287 283 277 277 272 264 265 271 261 245 256 251 243 246 244 239 240 236 229 226 221 218 214 211 209 208 209 208 206 205 205 204 204 204 205
231 251 264 272 279 284 287 313 341 339 299 258 256 262 276 286 289 292 302 311 284 257 262 269 270 270 269 270 270 270 269 271 270 263 262 271 284 284 283 290 293 292 286 274 261 257 254 256 239 251 255 251 241 244 241 236 238 232 222 219 216 213 210 208 207 207 207 205 204 204 202 202 200 198
268 292 321 306 293 288 302 321 313 320 291 264 268 276 282 280 287 299 337 322 318 321 322 310 309 303 292 287 291 293 285 278 278 272 273 274 276 284 288 291 297 298 292 253 267 266 260 244 243 222 244 248 246 228 230 231 228 229 220 210 215 212 208 207 205 205 206 204 203 203 200 199 185 195
324 328 313 306 323 320 316 318 320 323 333 286 299 278 254 279 295 333 324 312 312 309 309 304 302 298 302 303 303 303 303 299 298 291 287 283 279 281 287 288 287 287 289 298 294 267 261 244 243 218 225 242 254 220 210 224 221 219 217 213 213 209 206 206 206 206 204 203 202 201 198 189 179 192
313 313 310 310 310 311 310 313 316 297 304 335 284 258 242 268 330 341 311 314 312 306 304 302 300 300 304 309 308 307 306 305 305 301 293 288 283 283 282 287 290 288 287 289 300 284 264 242 239 226 210 226 245 267 247 208 203 209 206 203 207 201 188 200 204 206 207 206 203 199 192 182 184 192
281 283 293 297 302 309 319 323 310 288 235 273 258 250 324 330 337 328 308 305 308 303 302 301 301 305 311 315 314 312 310 305 302 301 296 291 286 280 275 280 288 294 297 301 301 285 260 244 231 224 217 217 238 234 259 230 202 199 197 202 205 193 185 190 191 202 196 198 203 198 193 187 189 195
284 286 284 284 301 322 319 312 304 256 136 201 237 324 319 317 317 302 314 311 309 305 301 302 304 310 315 318 316 314 312 305 299 295 292 290 290 286 285 281 279 283 288 292 295 290 249 247 221 221 222 220 232 226 235 246 207 194 199 199 203 193 186 185 185 191 190 187 201 184 184 186 190 196
269 271 275 297 316 335 17 34 50 80 123 26 352 326 321 301 317 334 320 320 311 306 302 304 310 312 315 316 313 311 307 304 302 299 295 296 294 293 294 294 295 296 296 296 300 290 244 235 230 217 217 220 220 225 225 230 225 201 201 192 197 192 176 184 187 190 186 181 171 159 170 180 195 191
261 286 290 308 57 70 68 78 93 101 116 333 305 302 296 322 327 321 326 319 314 308 309 310 309 307 309 309 302 298 297 298 299 298 302 298 298 297 296 297 296 295 302 308 309 303 256 231 235 240 232 220 231 228 227 221 204 203 205 194 189 183 170 183 185 183 175 170 171 168 183 186 182 183
292 283 273 109 99 108 95 82 73 66 73 50 3 351 354 333 323 316 318 318 312 308 308 311 310 307 309 308 303 302 301 304 305 306 307 313 314 316 316 317 316 316 320 323 321 309 293 253 254 264 278 261 231 229 214 216 208 199 182 199 176 152 179 175 182 179 170 174 178 184 189 185 181 173
275 5 69 89 74 71 67 65 56 49 41 19 358 347 335 329 323 320 316 312 306 300 307 307 307 307 307 306 309 307 311 310 307 308 311 315 314 317 316 315 315 326 330 332 325 329 321 295 276 257 260 293 273 214 213 206 217 206 190 199 167 174 177 181 178 179 178 180 178 176 166 171 174 184
34 66 90 91 81 68 62 60 46 33 17 359 337 325 326 328 326 325 318 295 285 279 290 302 303 308 315 319 318 315 311 306 307 315 319 321 314 317 319 323 326 326 331 336 337 335 337 323 296 269 241 238 285 300 239 207 214 209 204 184 185 198 147 186 187 188 178 166 161 169 174 175 178 184
79 76 76 86 76 71 74 79 52 358 311 321 326 326 322 319 312 301 313 321 322 317 317 319 321 317 322 320 317 314 310 312 317 322 320 322 323 320 322 319 316 330 336 336 335 337 336 330 303 271 226 18 313 270 252 220 209 200 200 181 181 200 193 192 183 178 153 159 169 172 182 191 189 184
74 71 105 87 115 126 147 193 234 299 296 305 315 314 299 303 308 323 325 328 323 318 318 313 317 319 326 324 325 323 315 311 316 320 320 321 325 323 326 325 324 326 333 335 338 339 339 339 351 61 86 98 76 33 1 268 199 193 193 182 172 200 183 158 152 147 161 176 172 176 180 189 193 186
97 118 135 121 131 154 183 200 214 317 303 295 293 292 312 317 326 331 329 333 325 320 317 316 315 315 324 324 322 322 315 314 314 321 327 324 328 330 323 324 326 330 332 337 341 341 339 344 343 334 25 85 74 74 48 29 302 198 177 186 152 148 149 137 166 161 154 189 173 171 175 178 188 189
104 128 136 152 165 179 186 179 192 318 292 296 312 332 337 338 339 333 330 329 320 317 321 321 321 323 324 322 320 316 314 314 315 322 329 337 335 331 330 327 326 327 327 331 334 337 342 347 349 347 325 274 214 275 5 45 45 350 292 182 156 189 156 162 170 159 166 177 186 179 179 188 194 187
139 152 155 162 179 186 176 145 146 358 316 315 324 338 338 325 326 322 319 315 315 320 321 314 313 321 324 325 320 317 316 319 321 326 327 328 328 329 332 328 328 329 328 324 323 334 346 353 355 359 3 343 318 240 49 358 33 36 11 13 199 163 170 156 164 165 179 176 170 190 197 191 195 185
161 161 160 171 170 164 133 95 24 351 337 326 319 317 320 306 308 315 315 321 329 322 323 323 322 327 330 331 328 324 322 317 315 320 328 331 337 338 335 325 324 326 323 315 327 339 344 353 3 3 8 17 14 18 24 356 358 8 14 31 352 357 332 161 174 191 189 190 186 181 176 198 195 188
157 165 165 164 154 138 111 82 20 339 323 318 312 314 308 302 312 322 334 334 330 327 325 327 334 335 329 329 327 325 321 325 328 330 330 332 333 331 330 330 326 326 326 325 331 341 346 354 3 5 2 12 28 30 17 0 40 353 27 40 21 323 346 323 182 159 167 177 165 166 166 106 99 134
146 141 149 148 147 132 104 80 46 334 307 306 303 305 312 315 326 329 337 339 333 329 326 333 334 330 327 331 329 325 322 323 323 319 323 327 327 326 328 328 321 322 324 328 332 337 346 348 354 357 356 351 329 278 300 255 158 48 39 35 34 36 352 319 334 192 186 171 155 153 147 139 151 151
148 147 145 145 130 123 123 85 1 292 291 299 300 301 316 313 316 349 343 342 332 332 338 335 332 328 326 327 330 331 328 328 328 327 329 329 330 330 330 333 332 340 334 327 329 332 340 335 338 337 343 337 327 266 124 35 35 22 24 25 27 38 41 38 21 357 45 57 173 181 175 171 141 157
149 141 138 142 135 123 112 109 300 284 297 295 289 298 296 308 356 336 328 344 340 337 332 332 333 328 327 327 329 332 331 333 333 329 331 333 334 333 340 346 342 339 338 328 323 320 316 325 334 341 353 357 8 32 41 37 41 29 26 14 15 31 47 48 49 54 56 9 217 166 129 148 147 174
147 141 141 132 122 128 153 178 248 287 270 270 278 291 287 322 336 359 1 354 344 343 339 332 330 327 326 326 328 330 331 338 337 330 327 333 338 338 338 336 337 329 325 312 313 317 328 336 346 351 3 13 13 19 35 31 30 32 26 22 20 12 31 48 54 57 58 52 51 53 16 127 170 199
150 142 135 133 133 137 164 187 217 231 249 246 260 266 309 336 5 13 357 349 342 341 330 328 327 330 328 326 325 327 339 341 336 331 330 331 333 335 331 327 330 330 326 330 335 339 337 343 348 351 13 15 4 19 25 23 27 25 23 21 15 21 27 20 27 58 59 49 41 45 53 52 39 28
146 138 137 145 146 149 174 204 218 203 212 230 238 260 325 353 18 7 359 347 344 333 327 329 327 328 328 329 333 335 334 337 334 328 328 331 337 338 336 335 338 339 345 343 336 346 349 341 346 357 11 12 10 14 19 31 26 24 22 19 15 12 20 19 28 41 53 59 36 40 47 53 55 61